Location: Charbonni�res
(45.9952°N, 2.9982°E)
Time: 14:52:58
(UTC+00:00)

USA 234 - Visible Passes

Search period start: 20 April 2021 00:00
Search period end: 30 April 2021 00:00
Orbit: 1102 x 1105 km, 123.0° (Epoch: 18 April)

Date Brightness Start Highest point End Pass type
(mag) Time Alt. Az. Time Alt. Az. Time Alt. Az.
20 Apr 3.5 01:38:55 10° ENE 01:45:18 53° SE 01:46:23 48° SSE visible
20 Apr 3.6 03:21:58 10° NE 03:28:23 60° NNW 03:33:43 15° WSW visible
21 Apr 4.4 00:56:43 10° ENE 01:01:54 28° ESE 01:01:54 28° ESE visible
21 Apr 3.2 02:39:09 10° NE 02:45:43 89° SE 02:49:15 30° SW visible
22 Apr 5.3 00:16:07 10° E 00:17:26 12° ESE 00:17:26 12° ESE visible
22 Apr 3.6 01:56:28 10° ENE 02:02:52 53° SE 02:04:47 41° S visible
22 Apr 3.6 03:39:31 10° NE 03:45:56 59° NNW 03:52:08 11° WSW visible
23 Apr 4.4 01:14:16 10° ENE 01:19:45 28° SE 01:20:19 28° SE visible
23 Apr 3.2 02:56:42 10° NE 03:03:17 90° ESE 03:07:40 23° SW visible
24 Apr 5.2 00:33:38 10° E 00:35:53 13° ESE 00:35:53 13° ESE visible
24 Apr 3.6 02:14:02 10° ENE 02:20:25 53° SE 02:23:14 33° SSW visible
24 Apr 3.6 03:57:05 10° NE 04:03:30 59° NNW 04:09:53 10° WSW visible
25 Apr 4.4 01:31:49 10° ENE 01:37:20 28° SE 01:38:47 26° SSE visible
25 Apr 3.3 03:14:15 10° NE 03:20:51 90° WNW 03:26:08 17° SW visible
26 Apr 5.2 00:51:09 10° E 00:53:59 13° ESE 00:54:22 13° ESE visible
26 Apr 3.6 02:31:36 10° ENE 02:37:59 54° SE 02:41:43 25° SSW visible
27 Apr 4.5 01:49:22 10° ENE 01:54:54 28° SE 01:57:18 23° SSE visible
27 Apr 3.3 03:31:50 10° NE 03:38:25 89° NW 03:44:39 12° SW visible
28 Apr 5.2 01:08:40 10° E 01:11:33 13° ESE 01:12:53 12° SE visible
28 Apr 3.7 02:49:08 10° ENE 02:55:33 54° SE 03:00:15 19° SSW visible
29 Apr 4.5 02:06:55 10° ENE 02:12:28 29° SE 02:15:51 19° S visible
29 Apr 3.3 03:49:23 10° NE 03:55:59 89° NW 04:02:32 10° SW visible
